This demonstration page uses our WeatherBlox Daily Observations layout. Learn more.

Left ArrowRight Arrow

53.62937, 11.41316

Hourly Observations for December 20, 2019

Temp ( °F °C ) Dew Point ( °F °C ) Humidity (%) Winds ( mph kmh ) Pressure ( in mb ) Visibility ( mi km ) Precip ( " mm )
6:50 am 06:50 Mostly Cloudy with Fog 41 5 41 5 100 100 SE 8 13 29.47 998 1 1 N/A
7:20 am 07:20 Cloudy with Fog 41 5 39 4 93 93 SE 8 13 29.44 997 1 1 N/A
7:50 am 07:50 Cloudy with Mist and Fog 41 5 39 4 93 93 SE 8 13 29.44 997 1 1 N/A
8:20 am 08:20 Cloudy with Mist and Fog 41 5 39 4 93 93 ESE 8 13 29.44 997 1 2 N/A
8:50 am 08:50 Cloudy with Mist and Fog 41 5 39 4 93 93 ESE 7 11 29.41 996 2 4 N/A
9:20 am 09:20 Mostly Cloudy with Mist and Fog 41 5 39 4 93 93 SSE 6 9 29.41 996 3 5 N/A
9:50 am 09:50 Mostly Sunny 41 5 39 4 93 93 ESE 5 7 29.38 995 4 6 N/A
10:20 am 10:20 Mostly Sunny 41 5 39 4 93 93 ESE 6 9 29.38 995 7 11 N/A
10:50 am 10:50 Mostly Sunny 45 7 39 4 81 81 SSE 5 7 29.35 994 7 11 N/A
11:20 am 11:20 Mostly Sunny 45 7 39 4 81 81 SE 6 9 29.32 993 7 11 N/A
11:50 am 11:50 Mostly Sunny 45 7 39 4 81 81 ESE 8 13 29.30 992 7 11 N/A
12:20 pm 12:20 Mostly Sunny 45 7 39 4 81 81 SE 8 13 29.30 992 7 11 N/A
12:50 pm 12:50 Mostly Sunny 46 8 39 4 76 76 SE 12 19 29.27 991 7 11 N/A
1:20 pm 13:20 Mostly Sunny 48 9 39 4 71 71 SE 9 15 29.24 990 7 11 N/A
1:50 pm 13:50 Mostly Sunny 48 9 41 5 76 76 SE 5 7 29.24 990 7 11 N/A
2:20 pm 14:20 Mostly Sunny 48 9 39 4 71 71 SSE 3 6 29.24 990 7 11 N/A
2:50 pm 14:50 Mostly Sunny 48 9 39 4 71 71 SE 5 7 29.21 989 7 11 N/A
3:20 pm 15:20 Mostly Sunny 48 9 41 5 76 76 SSE 5 7 29.21 989 7 11 N/A
3:50 pm 15:50 Mostly Sunny 48 9 41 5 76 76 SSE 6 9 29.21 989 7 11 N/A
4:20 pm 16:20 Mostly Clear 48 9 41 5 76 76 SSE 9 15 29.21 989 7 11 N/A
4:50 pm 16:50 Mostly Clear 48 9 41 5 76 76 SE 8 13 29.21 989 7 11 N/A
5:20 pm 17:20 Mostly Clear 46 8 41 5 82 82 SE 8 13 29.18 988 7 11 N/A
5:50 pm 17:50 Mostly Clear 46 8 41 5 82 82 SE 7 11 29.18 988 7 11 N/A
6:20 pm 18:20 Mostly Clear 46 8 41 5 82 82 SE 8 13 29.18 988 7 11 N/A
6:50 pm 18:50 Mostly Clear 46 8 41 5 82 82 SE 9 15 29.18 988 7 11 N/A
7:20 pm 19:20 Mostly Clear 48 9 41 5 76 76 SE 8 13 29.18 988 7 11 N/A
7:50 pm 19:50 Mostly Clear 48 9 43 6 82 82 SE 9 15 29.15 987 7 11 N/A

Powered by AerisWeather